Other Surface Observations
Issued by NWS Tucson, AZ

Home | Current Version | Previous Version | Text Only | Print | Product List | Glossary On
Versions: 1 2 3 4 5 6 7 8 9 10 11 12 13 14 15 16 17 18 19 20 21 22 23 24 25 26 27 28 29 30 31 32 33 34 35 36 37 38 39 40 41 42 43 44 45 46 47 48 49 50
428
SXUS55 KTWC 091215
OSOTWC

WEATHER ROUNDUP FOR SOUTHEAST ARIZONA
NATIONAL WEATHER SERVICE TUCSON AZ
515 AM MST TUE FEB 09 2016

AZZ504>506-514-091315-
LOCATION       SKY/WX    TMP DP  RH WIND       PRES   REMARKS
TUCSON         CLEAR     46  23  40 N3        30.20R
DAVIS-MONTHAN  CLEAR     54  20  26 SE6       30.19R
CHILDRENS PARK N/A      N/A N/A  54 E2                PIMA CO DEQ
ALVERNON/22ND  N/A       46 N/A N/A NE1               PIMA CO DEQ
CHERRY/GLENN   N/A       44 N/A N/A E2                PIMA CO DEQ
TANGERINE      N/A       48 N/A N/A NE4               PIMA CO DEQ
CONTL RANCH    N/A       50  26  39 SE3               PIMA CO DEQ
GRANT/1ST      N/A       46  28  50 N0                PIMA CO DEQ
CRAYCROFT/22ND N/A       47  24  40 N/A               PIMA CO DEQ
GOLFLINKS/KOLB N/A       52  22  30 SE4               PIMA CO DEQ
AJO/12TH       N/A       45  25  45 S4                PIMA CO DEQ
SAGUARO EAST   N/A       15 -16  22 S4                PIMA CO DEQ
FAIRGROUNDS    N/A       58 N/A N/A E9                PIMA CO DEQ
SAGUARO        N/A       45  24  43 N4                *SABINO CYN
SAN CARLOS     N/A       48  23  37 N3                *SAN CARLOS
GREEN VALLEY   N/A       42  22  44 SW5               PIMA CO DEQ
HORSE CAMP CYN N/A       50  21  31 E15G18            *ARAVAIPA CYN
RINCON MTNS    N/A       42  10  27 NE11G20           *NR MANNING CAMP
$$

AZZ509>511-091315-
LOCATION       SKY/WX    TMP DP  RH WIND       PRES   REMARKS
SAFFORD        CLEAR     46  24  42 E12       30.29R
STRAY HORSE    N/A       39  14  35 SE2               *
TRAIL CABIN    N/A       41  20  42 E7                *N OF GRANVILLE
BLACK HILLS    N/A       44  24  44 S2                *N OF FT THOMAS
DRY LAKE       N/A       40  16  38 SE6G12            *NATANES MTNS
NOON CREEK     N/A       47  21  35 SW6G12            *PINALENO MTNS
COLUMBINE      N/A       25  15  65 CALM              *PINALENO MTNS
GUTHRIE        N/A       45  18  33 E12G15            *SW OF GUTHRIE
$$

AZZ502-503-513-091315-
LOCATION       SKY/WX    TMP DP  RH WIND       PRES   REMARKS
NOGALES        CLEAR     46  17  31 VRB3      30.22S
SELLS          N/A       53  22  29 E3G10             *
SASABE         N/A       35  23  61 SW5               *ALTAR VLY
HOPKINS        N/A       50  -1  12 E12G29            *SANTA RITA MTNS
CARR CYN       N/A       39  16  39 SW2               *W OF HEREFORD
$$

AZZ507-508-512-091315-
LOCATION       SKY/WX    TMP DP  RH WIND       PRES   REMARKS
SIERRA VISTA   CLEAR     47  15  28 SE6       30.28S
DOUGLAS        PTCLDY    30  16  56 N5        30.28S WCI  25
EMPIRE MTNS    N/A       35  16  46 W5                *LAS CIENEGAS NCA
MULESHOE RANCH N/A       57  14  18 E13G27            *PRESERVE
HEADQUARTERS   N/A       49  13  23 NE8G17            *CHIRICAHUA MTNS
$$

.............................NOTES.............................
THIS IS AN AUTOMATED COLLECTIVE WITH MINIMAL QUALITY CONTROL.
PIMA CO DEQ SITES HAVE NONSTANDARD WIND SENSOR HEIGHTS.
PIMA CO DEQ SITES DO NOT REPORT WIND GUSTS.
* INDICATES WIND SENSORS LOCATED AT 20 FEET INSTEAD OF 33 FEET.
..............................KEY..............................
SKY/WX - SKY CONDITION/WEATHER
TMP    - TEMPERATURE IN FAHRENHEIT
DP     - DEWPOINT IN FAHRENHEIT
RH     - RELATIVE HUMIDITY IN PERCENT
WIND   - DIRECTION AND SPEED IN MILES PER HOUR (MPH)
VRB    - VARIABLE WIND DIRECTION
PRES   - MEAN SEA LEVEL PRESSURE IN INCHES OF MERCURY
         F - FALLING PRESSURE   R - RISING PRESSURE
         S - STEADY PRESSURE
VSB    - VISIBILITY IN MILES
HX     - HEAT INDEX IN FAHRENHEIT
WCI    - WIND CHILL INDEX IN FAHRENHEIT
N/A    - NOT AVAILABLE
AFB    - AIR FORCE BASE
         DAVIS-MONTHAN IS DAVIS-MONTHAN AIR FORCE BASE
CYN    - CANYON
MTNS   - MOUNTAINS
NCA    - NATIONAL CONSERVATION AREA
NR     - NEAR
VLY    - VALLEY
CONTL  - CONTINENTAL
PIMA CO DEQ - PIMA COUNTY DEPT OF ENVIRONMENTAL QUALITY



USA.gov is the U.S. government's official web portal to all federal, state and local government web resources and services.